Time,TemperatureF,DewpointF,PressureIn,WindDirection,WindDirectionDegrees,WindSpeedMPH,WindSpeedGustMPH,Humidity,HourlyPrecipIn,Conditions,Clouds,dailyrainin,SoftwareType,DateUTC
2013-03-14 00:04:00,50.6,27.1,30.28,WSW,251,4.0,11.0,40,0.00,,,0.00,Wunderground v.1.15,2013-03-14 06:04:00,
2013-03-14 00:10:00,50.9,27.4,30.28,WSW,256,4.0,11.0,40,0.00,,,0.00,Wunderground v.1.15,2013-03-14 06:10:00,
2013-03-14 00:16:00,51.4,27.9,30.28,WSW,257,4.0,11.0,40,0.00,,,0.00,Wunderground v.1.15,2013-03-14 06:16:00,
2013-03-14 00:22:00,51.5,27.9,30.29,West,260,3.0,11.0,40,0.00,,,0.00,Wunderground v.1.15,2013-03-14 06:22:00,
2013-03-14 00:28:00,51.3,27.8,30.29,West,260,3.0,11.0,40,0.00,,,0.00,Wunderground v.1.15,2013-03-14 06:28:00,
2013-03-14 00:34:00,51.1,27.6,30.29,WSW,256,3.0,11.0,40,0.00,,,0.00,Wunderground v.1.15,2013-03-14 06:34:00,
2013-03-14 00:40:00,50.8,27.9,30.29,WSW,256,3.0,3.0,41,0.00,,,0.00,Wunderground v.1.15,2013-03-14 06:40:00,
2013-03-14 00:46:00,50.4,27.6,30.30,WSW,256,2.0,11.0,41,0.00,,,0.00,Wunderground v.1.15,2013-03-14 06:46:00,
2013-03-14 00:52:00,49.8,27.6,30.30,WSW,256,2.0,11.0,42,0.00,,,0.00,Wunderground v.1.15,2013-03-14 06:52:00,
2013-03-14 00:58:00,49.3,27.7,30.31,WSW,256,2.0,11.0,43,0.00,,,0.00,Wunderground v.1.15,2013-03-14 06:58:00,
2013-03-14 01:04:00,49.9,28.3,30.31,WNW,299,3.0,11.0,43,0.00,,,0.00,Wunderground v.1.15,2013-03-14 07:04:00,
2013-03-14 01:10:00,50.2,28.0,30.31,WNW,298,4.0,11.0,42,0.00,,,0.00,Wunderground v.1.15,2013-03-14 07:10:00,
2013-03-14 01:16:00,51.3,29.5,30.31,NNW,335,5.0,14.0,43,0.00,,,0.00,Wunderground v.1.15,2013-03-14 07:16:00,
2013-03-14 01:22:00,52.3,29.3,30.32,NW,317,10.0,13.0,41,0.00,,,0.00,Wunderground v.1.15,2013-03-14 07:22:00,
2013-03-14 01:28:00,51.7,29.3,30.32,NNW,343,11.0,13.0,42,0.00,,,0.00,Wunderground v.1.15,2013-03-14 07:28:00,
2013-03-14 01:34:00,51.3,29.5,30.33,NNW,332,9.0,12.0,43,0.00,,,0.00,Wunderground v.1.15,2013-03-14 07:34:00,
2013-03-14 01:40:00,51.2,30.0,30.32,NNW,329,8.0,8.0,44,0.00,,,0.00,Wunderground v.1.15,2013-03-14 07:40:00,
2013-03-14 01:46:00,51.2,30.0,30.33,NW,305,7.0,11.0,44,0.00,,,0.00,Wunderground v.1.15,2013-03-14 07:46:00,
2013-03-14 01:52:00,51.1,29.9,30.33,NNW,335,8.0,11.0,44,0.00,,,0.00,Wunderground v.1.15,2013-03-14 07:52:00,
2013-03-14 01:58:00,50.9,30.3,30.33,NNW,328,8.0,11.0,45,0.00,,,0.00,Wunderground v.1.15,2013-03-14 07:58:00,
2013-03-14 02:04:00,50.8,30.2,30.33,NNW,330,7.0,11.0,45,0.00,,,0.00,Wunderground v.1.15,2013-03-14 08:04:00,
2013-03-14 02:10:00,50.6,30.0,30.34,NW,326,7.0,11.0,45,0.00,,,0.00,Wunderground v.1.15,2013-03-14 08:10:00,
2013-03-14 02:16:00,50.8,30.2,30.34,NW,305,7.0,11.0,45,0.00,,,0.00,Wunderground v.1.15,2013-03-14 08:16:00,
2013-03-14 02:22:00,50.8,30.2,30.34,NW,312,7.0,11.0,45,0.00,,,0.00,Wunderground v.1.15,2013-03-14 08:22:00,
2013-03-14 02:28:00,50.5,30.5,30.34,NW,307,5.0,11.0,46,0.00,,,0.00,Wunderground v.1.15,2013-03-14 08:28:00,
2013-03-14 02:34:00,50.2,30.2,30.34,NW,307,3.0,11.0,46,0.00,,,0.00,Wunderground v.1.15,2013-03-14 08:34:00,
2013-03-14 02:40:00,49.4,29.5,30.34,SSW,209,2.0,11.0,46,0.00,,,0.00,Wunderground v.1.15,2013-03-14 08:40:00,
2013-03-14 02:46:00,48.7,29.9,30.34,SW,223,3.0,11.0,48,0.00,,,0.00,Wunderground v.1.15,2013-03-14 08:46:00,
2013-03-14 02:52:00,49.0,30.1,30.34,West,269,3.0,11.0,48,0.00,,,0.00,Wunderground v.1.15,2013-03-14 08:52:00,
2013-03-14 02:58:00,49.2,30.3,30.34,West,269,2.0,11.0,48,0.00,,,0.00,Wunderground v.1.15,2013-03-14 08:58:00,
2013-03-14 03:04:00,49.0,30.1,30.33,West,265,2.0,11.0,48,0.00,,,0.00,Wunderground v.1.15,2013-03-14 09:04:00,
2013-03-14 03:10:00,48.6,30.3,30.34,West,260,2.0,11.0,49,0.00,,,0.00,Wunderground v.1.15,2013-03-14 09:10:00,
2013-03-14 03:16:00,48.7,30.4,30.34,West,260,2.0,11.0,49,0.00,,,0.00,Wunderground v.1.15,2013-03-14 09:16:00,
2013-03-14 03:22:00,48.5,30.2,30.34,West,260,2.0,11.0,49,0.00,,,0.00,Wunderground v.1.15,2013-03-14 09:22:00,
2013-03-14 03:28:00,48.4,30.6,30.33,West,260,2.0,11.0,50,0.00,,,0.00,Wunderground v.1.15,2013-03-14 09:28:00,
2013-03-14 03:34:00,48.6,30.8,30.33,West,260,2.0,11.0,50,0.00,,,0.00,Wunderground v.1.15,2013-03-14 09:34:00,
2013-03-14 03:40:00,49.0,30.7,30.34,West,260,2.0,11.0,49,0.00,,,0.00,Wunderground v.1.15,2013-03-14 09:40:00,
2013-03-14 03:46:00,49.2,30.8,30.33,West,260,2.0,11.0,49,0.00,,,0.00,Wunderground v.1.15,2013-03-14 09:46:00,
2013-03-14 03:52:00,48.9,30.6,30.33,West,260,1.0,11.0,49,0.00,,,0.00,Wunderground v.1.15,2013-03-14 09:52:00,
2013-03-14 03:58:00,48.0,30.2,30.33,West,260,2.0,11.0,50,0.00,,,0.00,Wunderground v.1.15,2013-03-14 09:58:00,
2013-03-14 04:04:00,46.8,29.6,30.33,West,260,2.0,11.0,51,0.00,,,0.00,Wunderground v.1.15,2013-03-14 10:04:00,
2013-03-14 04:10:00,45.7,29.5,30.33,West,260,1.0,11.0,53,0.00,,,0.00,Wunderground v.1.15,2013-03-14 10:10:00,
2013-03-14 04:16:00,45.2,29.5,30.33,West,260,1.0,11.0,54,0.00,,,0.00,Wunderground v.1.15,2013-03-14 10:16:00,
2013-03-14 04:22:00,45.2,29.5,30.33,West,260,2.0,11.0,54,0.00,,,0.00,Wunderground v.1.15,2013-03-14 10:22:00,
2013-03-14 04:28:00,45.2,29.5,30.34,West,260,2.0,11.0,54,0.00,,,0.00,Wunderground v.1.15,2013-03-14 10:28:00,
2013-03-14 04:34:00,45.3,29.2,30.34,West,260,2.0,11.0,53,0.00,,,0.00,Wunderground v.1.15,2013-03-14 10:34:00,
2013-03-14 04:40:00,45.2,29.1,30.34,West,260,1.0,11.0,53,0.00,,,0.00,Wunderground v.1.15,2013-03-14 10:40:00,
2013-03-14 04:46:00,45.3,29.2,30.34,West,260,2.0,11.0,53,0.00,,,0.00,Wunderground v.1.15,2013-03-14 10:46:00,
2013-03-14 04:52:00,45.4,29.3,30.34,West,260,2.0,11.0,53,0.00,,,0.00,Wunderground v.1.15,2013-03-14 10:52:00,
2013-03-14 04:58:00,45.3,29.2,30.34,West,260,2.0,11.0,53,0.00,,,0.00,Wunderground v.1.15,2013-03-14 10:58:00,
2013-03-14 05:04:00,45.3,29.6,30.34,West,260,2.0,11.0,54,0.00,,,0.00,Wunderground v.1.15,2013-03-14 11:04:00,
2013-03-14 05:10:00,45.5,29.8,30.35,West,260,1.0,11.0,54,0.00,,,0.00,Wunderground v.1.15,2013-03-14 11:10:00,
2013-03-14 05:16:00,45.6,29.4,30.35,West,263,2.0,11.0,53,0.00,,,0.00,Wunderground v.1.15,2013-03-14 11:16:00,
2013-03-14 05:22:00,45.4,29.3,30.35,West,264,2.0,11.0,53,0.00,,,0.00,Wunderground v.1.15,2013-03-14 11:22:00,
2013-03-14 05:28:00,45.1,29.4,30.35,West,264,2.0,11.0,54,0.00,,,0.00,Wunderground v.1.15,2013-03-14 11:28:00,
2013-03-14 05:34:00,45.0,29.3,30.35,West,264,2.0,11.0,54,0.00,,,0.00,Wunderground v.1.15,2013-03-14 11:34:00,
2013-03-14 05:40:00,45.3,29.6,30.35,West,264,2.0,2.0,54,0.00,,,0.00,Wunderground v.1.15,2013-03-14 11:40:00,
2013-03-14 05:46:00,45.6,29.9,30.35,West,264,1.0,11.0,54,0.00,,,0.00,Wunderground v.1.15,2013-03-14 11:46:00,
2013-03-14 05:52:00,46.0,29.8,30.35,West,264,1.0,11.0,53,0.00,,,0.00,Wunderground v.1.15,2013-03-14 11:52:00,
2013-03-14 05:58:00,46.1,29.9,30.35,West,264,1.0,11.0,53,0.00,,,0.00,Wunderground v.1.15,2013-03-14 11:58:00,
2013-03-14 06:04:00,45.8,29.6,30.35,West,264,1.0,11.0,53,0.00,,,0.00,Wunderground v.1.15,2013-03-14 12:04:00,
2013-03-14 06:10:00,45.6,29.4,30.35,West,264,2.0,11.0,53,0.00,,,0.00,Wunderground v.1.15,2013-03-14 12:10:00,
2013-03-14 06:16:00,45.1,29.9,30.35,West,264,2.0,11.0,55,0.00,,,0.00,Wunderground v.1.15,2013-03-14 12:16:00,
2013-03-14 06:22:00,45.2,30.0,30.35,West,264,2.0,11.0,55,0.00,,,0.00,Wunderground v.1.15,2013-03-14 12:22:00,
2013-03-14 06:28:00,45.2,30.0,30.35,West,264,1.0,11.0,55,0.00,,,0.00,Wunderground v.1.15,2013-03-14 12:28:00,
2013-03-14 06:34:00,45.0,29.8,30.35,West,264,2.0,11.0,55,0.00,,,0.00,Wunderground v.1.15,2013-03-14 12:34:00,
2013-03-14 06:40:00,44.5,29.8,30.35,West,264,2.0,2.0,56,0.00,,,0.00,Wunderground v.1.15,2013-03-14 12:40:00,
2013-03-14 06:46:00,44.3,29.6,30.35,West,264,1.0,11.0,56,0.00,,,0.00,Wunderground v.1.15,2013-03-14 12:46:00,
2013-03-14 06:52:00,43.7,29.0,30.35,West,264,1.0,11.0,56,0.00,,,0.00,Wunderground v.1.15,2013-03-14 12:52:00,
2013-03-14 06:58:00,43.6,29.4,30.35,West,264,2.0,11.0,57,0.00,,,0.00,Wunderground v.1.15,2013-03-14 12:58:00,
2013-03-14 07:04:00,44.0,29.7,30.35,West,264,2.0,11.0,57,0.00,,,0.00,Wunderground v.1.15,2013-03-14 13:04:00,
2013-03-14 07:10:00,44.3,29.1,30.35,West,264,2.0,11.0,55,0.00,,,0.00,Wunderground v.1.15,2013-03-14 13:10:00,
2013-03-14 07:16:00,44.8,29.2,30.35,West,264,2.0,11.0,54,0.00,,,0.00,Wunderground v.1.15,2013-03-14 13:16:00,
2013-03-14 07:22:00,44.6,29.0,30.35,West,264,1.0,11.0,54,0.00,,,0.00,Wunderground v.1.15,2013-03-14 13:22:00,
2013-03-14 07:28:00,44.2,29.0,30.36,West,264,0.0,11.0,55,0.00,,,0.00,Wunderground v.1.15,2013-03-14 13:28:00,
2013-03-14 07:34:00,43.7,28.6,30.36,West,264,0.0,11.0,55,0.00,,,0.00,Wunderground v.1.15,2013-03-14 13:34:00,
2013-03-14 07:40:00,43.3,28.6,30.36,West,264,0.0,11.0,56,0.00,,,0.00,Wunderground v.1.15,2013-03-14 13:40:00,
2013-03-14 07:46:00,43.1,28.9,30.37,West,264,0.0,11.0,57,0.00,,,0.00,Wunderground v.1.15,2013-03-14 13:46:00,
2013-03-14 07:52:00,43.0,28.8,30.38,West,268,0.0,11.0,57,0.00,,,0.00,Wunderground v.1.15,2013-03-14 13:52:00,
2013-03-14 07:58:00,42.6,28.8,30.38,West,268,1.0,11.0,58,0.00,,,0.00,Wunderground v.1.15,2013-03-14 13:58:00,
2013-03-14 08:04:00,42.7,28.9,30.38,West,268,1.0,11.0,58,0.00,,,0.00,Wunderground v.1.15,2013-03-14 14:04:00,
2013-03-14 08:10:00,42.9,29.1,30.38,West,268,1.0,11.0,58,0.00,,,0.00,Wunderground v.1.15,2013-03-14 14:10:00,
2013-03-14 08:16:00,43.3,29.1,30.37,West,268,1.0,11.0,57,0.00,,,0.00,Wunderground v.1.15,2013-03-14 14:16:00,
2013-03-14 08:22:00,43.8,29.1,30.37,West,268,0.0,11.0,56,0.00,,,0.00,Wunderground v.1.15,2013-03-14 14:22:00,
2013-03-14 08:28:00,44.5,29.3,30.36,West,268,0.0,11.0,55,0.00,,,0.00,Wunderground v.1.15,2013-03-14 14:28:00,
2013-03-14 08:34:00,45.5,30.7,30.36,West,268,0.0,11.0,56,0.00,,,0.00,Wunderground v.1.15,2013-03-14 14:34:00,
2013-03-14 08:40:00,46.4,31.1,30.36,West,268,0.0,11.0,55,0.00,,,0.00,Wunderground v.1.15,2013-03-14 14:40:00,
2013-03-14 08:46:00,47.0,30.7,30.36,West,268,0.0,11.0,53,0.00,,,0.00,Wunderground v.1.15,2013-03-14 14:46:00,
2013-03-14 08:52:00,48.0,31.2,30.36,West,268,0.0,11.0,52,0.00,,,0.00,Wunderground v.1.15,2013-03-14 14:52:00,
2013-03-14 08:58:00,48.8,31.9,30.35,West,268,0.0,11.0,52,0.00,,,0.00,Wunderground v.1.15,2013-03-14 14:58:00,
2013-03-14 09:04:00,50.0,32.1,30.35,West,268,0.0,11.0,50,0.00,,,0.00,Wunderground v.1.15,2013-03-14 15:04:00,
2013-03-14 09:10:00,50.9,32.4,30.35,WNW,287,2.0,11.0,49,0.00,,,0.00,Wunderground v.1.15,2013-03-14 15:10:00,
2013-03-14 09:16:00,51.4,32.3,30.35,WNW,295,3.0,11.0,48,0.00,,,0.00,Wunderground v.1.15,2013-03-14 15:16:00,
2013-03-14 09:22:00,52.1,32.5,30.35,WNW,295,2.0,11.0,47,0.00,,,0.00,Wunderground v.1.15,2013-03-14 15:22:00,
2013-03-14 09:28:00,52.9,32.7,30.35,West,268,1.0,11.0,46,0.00,,,0.00,Wunderground v.1.15,2013-03-14 15:28:00,
2013-03-14 09:34:00,54.1,33.2,30.35,West,268,0.0,11.0,45,0.00,,,0.00,Wunderground v.1.15,2013-03-14 15:34:00,
2013-03-14 09:40:00,55.3,32.6,30.35,West,267,0.0,11.0,42,0.00,,,0.00,Wunderground v.1.15,2013-03-14 15:40:00,
2013-03-14 09:48:00,57.2,32.4,30.34,West,267,0.0,11.0,39,0.00,,,0.00,Wunderground v.1.15,2013-03-14 15:48:00,
2013-03-14 09:54:00,58.6,32.4,30.34,SSW,193,1.0,11.0,37,0.00,,,0.00,Wunderground v.1.15,2013-03-14 15:54:00,
2013-03-14 10:00:00,59.1,32.1,30.34,South,189,3.0,3.0,36,0.00,,,0.00,Wunderground v.1.15,2013-03-14 16:00:00,
2013-03-14 10:06:00,59.5,31.8,30.34,South,185,3.0,11.0,35,0.00,,,0.00,Wunderground v.1.15,2013-03-14 16:06:00,
2013-03-14 10:12:00,59.3,31.6,30.34,South,171,5.0,11.0,35,0.00,,,0.00,Wunderground v.1.15,2013-03-14 16:12:00,
2013-03-14 10:18:00,59.7,32.0,30.34,SSE,164,4.0,11.0,35,0.00,,,0.00,Wunderground v.1.15,2013-03-14 16:18:00,
2013-03-14 10:24:00,59.8,32.1,30.33,South,183,5.0,11.0,35,0.00,,,0.00,Wunderground v.1.15,2013-03-14 16:24:00,
2013-03-14 10:30:00,60.2,32.4,30.33,SSW,194,4.0,11.0,35,0.00,,,0.00,Wunderground v.1.15,2013-03-14 16:30:00,
2013-03-14 10:36:00,60.7,32.1,30.33,SSW,199,5.0,11.0,34,0.00,,,0.00,Wunderground v.1.15,2013-03-14 16:36:00,
2013-03-14 10:42:00,61.0,32.4,30.33,SSE,168,6.0,6.0,34,0.00,,,0.00,Wunderground v.1.15,2013-03-14 16:42:00,
2013-03-14 10:48:00,61.2,32.6,30.32,SSE,167,6.0,11.0,34,0.00,,,0.00,Wunderground v.1.15,2013-03-14 16:48:00,
2013-03-14 10:54:00,61.6,32.9,30.32,SSE,168,7.0,11.0,34,0.00,,,0.00,Wunderground v.1.15,2013-03-14 16:54:00,
2013-03-14 11:00:00,62.1,31.9,30.31,South,172,8.0,11.0,32,0.00,,,0.00,Wunderground v.1.15,2013-03-14 17:00:00,
2013-03-14 11:06:00,62.3,32.0,30.31,SSE,162,9.0,11.0,32,0.00,,,0.00,Wunderground v.1.15,2013-03-14 17:06:00,
2013-03-14 11:12:00,62.8,32.5,30.31,SSE,158,9.0,10.0,32,0.00,,,0.00,Wunderground v.1.15,2013-03-14 17:12:00,
2013-03-14 11:18:00,63.1,31.9,30.31,South,181,9.0,11.0,31,0.00,,,0.00,Wunderground v.1.15,2013-03-14 17:18:00,
2013-03-14 11:24:00,63.9,31.8,30.31,South,170,9.0,13.0,30,0.00,,,0.00,Wunderground v.1.15,2013-03-14 17:24:00,
2013-03-14 11:30:00,64.2,31.3,30.30,SSE,168,10.0,12.0,29,0.00,,,0.00,Wunderground v.1.15,2013-03-14 17:30:00,
2013-03-14 11:36:00,64.6,32.4,30.30,South,172,9.0,12.0,30,0.00,,,0.00,Wunderground v.1.15,2013-03-14 17:36:00,
2013-03-14 11:42:00,64.5,31.5,30.30,SSE,164,9.0,11.0,29,0.00,,,0.00,Wunderground v.1.15,2013-03-14 17:42:00,
2013-03-14 11:48:00,64.9,31.0,30.29,SSE,166,8.0,11.0,28,0.00,,,0.00,Wunderground v.1.15,2013-03-14 17:48:00,
2013-03-14 11:54:00,65.5,31.5,30.30,South,173,8.0,11.0,28,0.00,,,0.00,Wunderground v.1.15,2013-03-14 17:54:00,
2013-03-14 12:00:00,66.0,31.0,30.29,SSE,153,7.0,7.0,27,0.00,,,0.00,Wunderground v.1.15,2013-03-14 18:00:00,
2013-03-14 12:06:00,66.3,30.4,30.29,SSE,165,6.0,11.0,26,0.00,,,0.00,Wunderground v.1.15,2013-03-14 18:06:00,
2013-03-14 12:12:00,66.5,30.5,30.29,SSE,152,7.0,11.0,26,0.00,,,0.00,Wunderground v.1.15,2013-03-14 18:12:00,
2013-03-14 12:18:00,67.2,31.1,30.28,SSE,166,7.0,11.0,26,0.00,,,0.00,Wunderground v.1.15,2013-03-14 18:18:00,
2013-03-14 12:24:00,67.4,31.3,30.28,SSE,149,6.0,11.0,26,0.00,,,0.00,Wunderground v.1.15,2013-03-14 18:24:00,
2013-03-14 12:30:00,67.4,31.3,30.28,SSW,197,6.0,11.0,26,0.00,,,0.00,Wunderground v.1.15,2013-03-14 18:30:00,
2013-03-14 12:36:00,67.1,31.0,30.28,SE,139,7.0,11.0,26,0.00,,,0.00,Wunderground v.1.15,2013-03-14 18:36:00,
2013-03-14 12:42:00,67.4,31.3,30.28,SSW,196,6.0,11.0,26,0.00,,,0.00,Wunderground v.1.15,2013-03-14 18:42:00,
2013-03-14 12:48:00,67.7,30.6,30.28,SE,143,5.0,11.0,25,0.00,,,0.00,Wunderground v.1.15,2013-03-14 18:48:00,
2013-03-14 12:54:00,67.7,30.6,30.27,SSE,168,6.0,11.0,25,0.00,,,0.00,Wunderground v.1.15,2013-03-14 18:54:00,
2013-03-14 13:00:00,68.1,30.9,30.27,SE,144,6.0,11.0,25,0.00,,,0.00,Wunderground v.1.15,2013-03-14 19:00:00,
2013-03-14 13:06:00,68.4,30.2,30.26,SE,135,5.0,11.0,24,0.00,,,0.00,Wunderground v.1.15,2013-03-14 19:06:00,
2013-03-14 13:12:00,68.6,30.3,30.25,South,191,3.0,4.0,24,0.00,,,0.00,Wunderground v.1.15,2013-03-14 19:12:00,
2013-03-14 13:18:00,68.6,30.3,30.25,SSE,164,4.0,11.0,24,0.00,,,0.00,Wunderground v.1.15,2013-03-14 19:18:00,
2013-03-14 13:24:00,68.6,30.3,30.25,SSE,161,3.0,11.0,24,0.00,,,0.00,Wunderground v.1.15,2013-03-14 19:24:00,
2013-03-14 13:30:00,68.4,30.2,30.25,ENE,63,2.0,11.0,24,0.00,,,0.00,Wunderground v.1.15,2013-03-14 19:30:00,
2013-03-14 13:36:00,68.3,30.1,30.25,NE,36,3.0,11.0,24,0.00,,,0.00,Wunderground v.1.15,2013-03-14 19:36:00,
2013-03-14 13:42:00,68.6,30.3,30.25,East,84,3.0,11.0,24,0.00,,,0.00,Wunderground v.1.15,2013-03-14 19:42:00,
2013-03-14 13:48:00,68.7,29.4,30.24,ENE,66,2.0,11.0,23,0.00,,,0.00,Wunderground v.1.15,2013-03-14 19:48:00,
2013-03-14 13:54:00,69.5,30.0,30.24,NNE,27,2.0,11.0,23,0.00,,,0.00,Wunderground v.1.15,2013-03-14 19:54:00,
2013-03-14 14:00:00,69.4,30.0,30.24,NW,305,4.0,4.0,23,0.00,,,0.00,Wunderground v.1.15,2013-03-14 20:00:00,
2013-03-14 14:06:00,69.6,30.1,30.24,NE,39,4.0,11.0,23,0.00,,,0.00,Wunderground v.1.15,2013-03-14 20:06:00,
2013-03-14 14:12:00,69.5,30.0,30.23,NW,321,3.0,6.0,23,0.00,,,0.00,Wunderground v.1.15,2013-03-14 20:12:00,
2013-03-14 14:18:00,69.3,29.9,30.23,WSW,258,3.0,11.0,23,0.00,,,0.00,Wunderground v.1.15,2013-03-14 20:18:00,
2013-03-14 14:24:00,69.8,30.3,30.22,NNE,33,2.0,11.0,23,0.00,,,0.00,Wunderground v.1.15,2013-03-14 20:24:00,
2013-03-14 14:30:00,70.2,29.5,30.22,NE,43,3.0,11.0,22,0.00,,,0.00,Wunderground v.1.15,2013-03-14 20:30:00,
2013-03-14 14:36:00,70.4,29.7,30.22,NW,315,4.0,11.0,22,0.00,,,0.00,Wunderground v.1.15,2013-03-14 20:36:00,
2013-03-14 14:42:00,69.7,29.1,30.21,WNW,290,4.0,7.0,22,0.00,,,0.00,Wunderground v.1.15,2013-03-14 20:42:00,
2013-03-14 14:48:00,69.5,29.0,30.21,NNW,339,2.0,11.0,22,0.00,,,0.00,Wunderground v.1.15,2013-03-14 20:48:00,
2013-03-14 14:54:00,69.7,29.1,30.21,West,275,1.0,11.0,22,0.00,,,0.00,Wunderground v.1.15,2013-03-14 20:54:00,
2013-03-14 15:00:00,69.8,29.2,30.21,WNW,301,2.0,2.0,22,0.00,,,0.00,Wunderground v.1.15,2013-03-14 21:00:00,
2013-03-14 15:06:00,70.2,29.5,30.20,East,86,3.0,11.0,22,0.00,,,0.00,Wunderground v.1.15,2013-03-14 21:06:00,
2013-03-14 15:12:00,70.7,28.8,30.20,ESE,108,3.0,11.0,21,0.00,,,0.00,Wunderground v.1.15,2013-03-14 21:12:00,
2013-03-14 15:18:00,71.1,30.3,30.19,NE,38,3.0,11.0,22,0.00,,,0.00,Wunderground v.1.15,2013-03-14 21:18:00,
2013-03-14 15:24:00,70.9,29.0,30.19,NNE,33,3.0,11.0,21,0.00,,,0.00,Wunderground v.1.15,2013-03-14 21:24:00,
2013-03-14 15:30:00,70.3,28.5,30.19,NE,35,5.0,11.0,21,0.00,,,0.00,Wunderground v.1.15,2013-03-14 21:30:00,
2013-03-14 15:36:00,70.4,28.6,30.19,NE,35,2.0,11.0,21,0.00,,,0.00,Wunderground v.1.15,2013-03-14 21:36:00,
2013-03-14 15:42:00,70.8,28.9,30.19,NE,51,2.0,11.0,21,0.00,,,0.00,Wunderground v.1.15,2013-03-14 21:42:00,
2013-03-14 15:48:00,70.8,28.9,30.19,NNW,341,3.0,11.0,21,0.00,,,0.00,Wunderground v.1.15,2013-03-14 21:48:00,
2013-03-14 15:54:00,71.1,29.2,30.19,ENE,60,2.0,11.0,21,0.00,,,0.00,Wunderground v.1.15,2013-03-14 21:54:00,
2013-03-14 16:00:00,71.3,28.1,30.19,NE,55,4.0,11.0,20,0.00,,,0.00,Wunderground v.1.15,2013-03-14 22:00:00,
2013-03-14 16:06:00,71.4,28.2,30.19,ENE,70,4.0,11.0,20,0.00,,,0.00,Wunderground v.1.15,2013-03-14 22:06:00,
2013-03-14 16:12:00,71.3,28.1,30.19,ENE,69,2.0,11.0,20,0.00,,,0.00,Wunderground v.1.15,2013-03-14 22:12:00,
2013-03-14 16:18:00,71.2,28.0,30.19,ENE,71,2.0,11.0,20,0.00,,,0.00,Wunderground v.1.15,2013-03-14 22:18:00,
2013-03-14 16:24:00,71.0,27.9,30.18,NE,45,2.0,11.0,20,0.00,,,0.00,Wunderground v.1.15,2013-03-14 22:24:00,
2013-03-14 16:30:00,70.6,27.5,30.18,NNE,16,2.0,11.0,20,0.00,,,0.00,Wunderground v.1.15,2013-03-14 22:30:00,
2013-03-14 16:36:00,70.2,28.4,30.18,NNE,15,3.0,11.0,21,0.00,,,0.00,Wunderground v.1.15,2013-03-14 22:36:00,
2013-03-14 16:42:00,70.1,28.3,30.18,NE,43,3.0,11.0,21,0.00,,,0.00,Wunderground v.1.15,2013-03-14 22:42:00,
2013-03-14 16:48:00,70.0,28.2,30.18,NE,42,1.0,11.0,21,0.00,,,0.00,Wunderground v.1.15,2013-03-14 22:48:00,
2013-03-14 16:54:00,69.8,28.1,30.17,NE,50,2.0,11.0,21,0.00,,,0.00,Wunderground v.1.15,2013-03-14 22:54:00,
2013-03-14 17:00:00,69.8,28.1,30.17,NE,50,1.0,11.0,21,0.00,,,0.00,Wunderground v.1.15,2013-03-14 23:00:00,
2013-03-14 17:06:00,69.7,28.0,30.17,NE,50,0.0,11.0,21,0.00,,,0.00,Wunderground v.1.15,2013-03-14 23:06:00,
2013-03-14 17:12:00,69.7,28.0,30.17,NE,50,0.0,11.0,21,0.00,,,0.00,Wunderground v.1.15,2013-03-14 23:12:00,
2013-03-14 17:18:00,69.7,28.0,30.18,NE,51,0.0,11.0,21,0.00,,,0.00,Wunderground v.1.15,2013-03-14 23:18:00,
2013-03-14 17:24:00,69.5,27.8,30.17,ENE,68,1.0,11.0,21,0.00,,,0.00,Wunderground v.1.15,2013-03-14 23:24:00,
2013-03-14 17:30:00,69.3,27.7,30.17,ENE,68,2.0,2.0,21,0.00,,,0.00,Wunderground v.1.15,2013-03-14 23:30:00,
2013-03-14 17:36:00,68.9,28.5,30.17,ENE,68,1.0,11.0,22,0.00,,,0.00,Wunderground v.1.15,2013-03-14 23:36:00,
2013-03-14 17:42:00,68.5,28.1,30.17,ENE,68,0.0,11.0,22,0.00,,,0.00,Wunderground v.1.15,2013-03-14 23:42:00,
2013-03-14 17:48:00,68.1,27.8,30.17,ENE,68,0.0,11.0,22,0.00,,,0.00,Wunderground v.1.15,2013-03-14 23:48:00,
2013-03-14 17:54:00,67.6,27.4,30.17,ENE,68,1.0,11.0,22,0.00,,,0.00,Wunderground v.1.15,2013-03-14 23:54:00,
2013-03-14 18:00:00,67.0,27.9,30.17,ENE,68,2.0,11.0,23,0.00,,,0.00,Wunderground v.1.15,2013-03-15 00:00:00,
2013-03-14 18:06:00,66.3,28.4,30.17,ENE,68,2.0,11.0,24,0.00,,,0.00,Wunderground v.1.15,2013-03-15 00:06:00,
2013-03-14 18:12:00,65.8,28.0,30.17,ENE,68,1.0,11.0,24,0.00,,,0.00,Wunderground v.1.15,2013-03-15 00:12:00,
2013-03-14 18:18:00,65.4,28.6,30.17,ENE,69,1.0,11.0,25,0.00,,,0.00,Wunderground v.1.15,2013-03-15 00:18:00,
2013-03-14 18:24:00,64.9,28.2,30.17,ENE,68,1.0,11.0,25,0.00,,,0.00,Wunderground v.1.15,2013-03-15 00:24:00,
2013-03-14 18:30:00,64.5,27.9,30.17,ENE,68,1.0,11.0,25,0.00,,,0.00,Wunderground v.1.15,2013-03-15 00:30:00,
2013-03-14 18:36:00,63.9,27.4,30.17,East,97,2.0,11.0,25,0.00,,,0.00,Wunderground v.1.15,2013-03-15 00:36:00,
2013-03-14 18:42:00,63.1,27.6,30.16,East,98,3.0,11.0,26,0.00,,,0.00,Wunderground v.1.15,2013-03-15 00:42:00,
2013-03-14 18:48:00,62.8,27.4,30.16,ESE,102,2.0,11.0,26,0.00,,,0.00,Wunderground v.1.15,2013-03-15 00:48:00,
2013-03-14 18:54:00,62.6,27.2,30.16,ESE,108,2.0,11.0,26,0.00,,,0.00,Wunderground v.1.15,2013-03-15 00:54:00,
2013-03-14 19:00:00,62.4,27.0,30.16,ESE,123,3.0,3.0,26,0.00,,,0.00,Wunderground v.1.15,2013-03-15 01:00:00,
2013-03-14 19:06:00,62.2,26.9,30.16,ESE,116,3.0,11.0,26,0.00,,,0.00,Wunderground v.1.15,2013-03-15 01:06:00,
2013-03-14 19:12:00,61.9,26.6,30.16,SE,127,3.0,11.0,26,0.00,,,0.00,Wunderground v.1.15,2013-03-15 01:12:00,
2013-03-14 19:18:00,62.0,26.7,30.15,SE,125,3.0,11.0,26,0.00,,,0.00,Wunderground v.1.15,2013-03-15 01:18:00,
2013-03-14 19:24:00,62.0,26.7,30.15,SE,125,2.0,11.0,26,0.00,,,0.00,Wunderground v.1.15,2013-03-15 01:24:00,
2013-03-14 19:30:00,61.9,26.6,30.16,ESE,120,2.0,2.0,26,0.00,,,0.00,Wunderground v.1.15,2013-03-15 01:30:00,
2013-03-14 19:36:00,61.5,26.3,30.15,ESE,120,1.0,11.0,26,0.00,,,0.00,Wunderground v.1.15,2013-03-15 01:36:00,
2013-03-14 19:42:00,60.8,26.6,30.15,ESE,120,0.0,11.0,27,0.00,,,0.00,Wunderground v.1.15,2013-03-15 01:42:00,
2013-03-14 19:48:00,60.0,26.8,30.15,ENE,57,1.0,11.0,28,0.00,,,0.00,Wunderground v.1.15,2013-03-15 01:48:00,
2013-03-14 19:54:00,59.2,26.9,30.16,ENE,57,0.0,11.0,29,0.00,,,0.00,Wunderground v.1.15,2013-03-15 01:54:00,
2013-03-14 20:00:00,58.7,26.5,30.16,ENE,57,0.0,11.0,29,0.00,,,0.00,Wunderground v.1.15,2013-03-15 02:00:00,
2013-03-14 20:06:00,58.5,27.1,30.16,NNW,327,1.0,11.0,30,0.00,,,0.00,Wunderground v.1.15,2013-03-15 02:06:00,
2013-03-14 20:12:00,57.3,26.9,30.16,NNW,327,1.0,11.0,31,0.00,,,0.00,Wunderground v.1.15,2013-03-15 02:12:00,
2013-03-14 20:18:00,56.4,26.9,30.16,WSW,241,1.0,11.0,32,0.00,,,0.00,Wunderground v.1.15,2013-03-15 02:18:00,
2013-03-14 20:24:00,56.0,26.5,30.16,WSW,241,1.0,11.0,32,0.00,,,0.00,Wunderground v.1.15,2013-03-15 02:24:00,
2013-03-14 20:30:00,56.3,26.8,30.16,WSW,245,1.0,11.0,32,0.00,,,0.00,Wunderground v.1.15,2013-03-15 02:30:00,
2013-03-14 20:36:00,56.9,27.3,30.16,WSW,243,1.0,11.0,32,0.00,,,0.00,Wunderground v.1.15,2013-03-15 02:36:00,
2013-03-14 20:42:00,57.6,27.2,30.15,SW,233,1.0,11.0,31,0.00,,,0.00,Wunderground v.1.15,2013-03-15 02:42:00,
2013-03-14 20:48:00,57.7,27.2,30.16,NW,305,2.0,11.0,31,0.00,,,0.00,Wunderground v.1.15,2013-03-15 02:48:00,
2013-03-14 20:54:00,58.0,27.5,30.16,WSW,239,2.0,11.0,31,0.00,,,0.00,Wunderground v.1.15,2013-03-15 02:54:00,
2013-03-14 21:00:00,58.0,27.5,30.16,West,280,2.0,11.0,31,0.00,,,0.00,Wunderground v.1.15,2013-03-15 03:00:00,
2013-03-14 21:06:00,57.6,27.2,30.16,West,268,2.0,11.0,31,0.00,,,0.00,Wunderground v.1.15,2013-03-15 03:06:00,
2013-03-14 21:12:00,57.6,27.9,30.16,WSW,248,2.0,11.0,32,0.00,,,0.00,Wunderground v.1.15,2013-03-15 03:12:00,
2013-03-14 21:18:00,57.8,27.3,30.16,WNW,301,3.0,11.0,31,0.00,,,0.00,Wunderground v.1.15,2013-03-15 03:18:00,
2013-03-14 21:24:00,57.6,27.9,30.16,WNW,300,1.0,11.0,32,0.00,,,0.00,Wunderground v.1.15,2013-03-15 03:24:00,
2013-03-14 21:30:00,57.3,27.7,30.15,WNW,299,0.0,11.0,32,0.00,,,0.00,Wunderground v.1.15,2013-03-15 03:30:00,
2013-03-14 21:36:00,57.7,27.2,30.15,WNW,300,0.0,11.0,31,0.00,,,0.00,Wunderground v.1.15,2013-03-15 03:36:00,
2013-03-14 21:42:00,58.0,27.5,30.15,WNW,300,1.0,11.0,31,0.00,,,0.00,Wunderground v.1.15,2013-03-15 03:42:00,
2013-03-14 21:48:00,58.4,27.9,30.15,WNW,300,1.0,11.0,31,0.00,,,0.00,Wunderground v.1.15,2013-03-15 03:48:00,
2013-03-14 21:54:00,58.5,27.1,30.15,WNW,300,1.0,11.0,30,0.00,,,0.00,Wunderground v.1.15,2013-03-15 03:54:00,
2013-03-14 22:00:00,58.6,27.2,30.15,WNW,300,1.0,11.0,30,0.00,,,0.00,Wunderground v.1.15,2013-03-15 04:00:00,
2013-03-14 22:02:00,58.7,27.3,30.15,WNW,300,1.0,11.0,30,0.00,,,0.00,Wunderground v.1.15,2013-03-15 04:02:00,
2013-03-14 22:08:00,58.9,27.5,30.15,WNW,300,1.0,11.0,30,0.00,,,0.00,Wunderground v.1.15,2013-03-15 04:08:00,
2013-03-14 22:12:00,59.2,27.7,30.15,WNW,299,2.0,11.0,30,0.00,,,0.00,Wunderground v.1.15,2013-03-15 04:12:00,
2013-03-14 22:18:00,59.4,27.1,30.14,WNW,287,2.0,11.0,29,0.00,,,0.00,Wunderground v.1.15,2013-03-15 04:18:00,
2013-03-14 22:24:00,59.6,27.3,30.14,SSW,193,2.0,11.0,29,0.00,,,0.00,Wunderground v.1.15,2013-03-15 04:24:00,
2013-03-14 22:30:00,59.6,27.3,30.14,SSW,193,1.0,1.0,29,0.00,,,0.00,Wunderground v.1.15,2013-03-15 04:30:00,
2013-03-14 22:36:00,59.4,27.9,30.14,SW,222,1.0,11.0,30,0.00,,,0.00,Wunderground v.1.15,2013-03-15 04:36:00,
2013-03-14 22:42:00,58.9,27.5,30.13,SW,227,2.0,11.0,30,0.00,,,0.00,Wunderground v.1.15,2013-03-15 04:42:00,
2013-03-14 22:48:00,58.7,28.1,30.13,SW,227,1.0,11.0,31,0.00,,,0.00,Wunderground v.1.15,2013-03-15 04:48:00,
2013-03-14 22:54:00,58.3,27.8,30.13,SW,227,0.0,11.0,31,0.00,,,0.00,Wunderground v.1.15,2013-03-15 04:54:00,
2013-03-14 23:00:00,58.4,27.9,30.12,SW,227,1.0,11.0,31,0.00,,,0.00,Wunderground v.1.15,2013-03-15 05:00:00,
2013-03-14 23:06:00,58.8,28.2,30.12,SW,227,1.0,11.0,31,0.00,,,0.00,Wunderground v.1.15,2013-03-15 05:06:00,
2013-03-14 23:12:00,58.5,27.9,30.12,SW,233,1.0,11.0,31,0.00,,,0.00,Wunderground v.1.15,2013-03-15 05:12:00,
2013-03-14 23:18:00,58.0,27.5,30.12,WSW,245,1.0,11.0,31,0.00,,,0.00,Wunderground v.1.15,2013-03-15 05:18:00,
2013-03-14 23:24:00,57.8,28.1,30.12,West,261,3.0,11.0,32,0.00,,,0.00,Wunderground v.1.15,2013-03-15 05:24:00,
2013-03-14 23:30:00,57.2,27.6,30.12,WSW,256,2.0,11.0,32,0.00,,,0.00,Wunderground v.1.15,2013-03-15 05:30:00,
2013-03-14 23:36:00,57.0,28.1,30.11,WSW,256,1.0,11.0,33,0.00,,,0.00,Wunderground v.1.15,2013-03-15 05:36:00,
2013-03-14 23:42:00,56.8,28.0,30.11,WSW,254,2.0,11.0,33,0.00,,,0.00,Wunderground v.1.15,2013-03-15 05:42:00,
2013-03-14 23:48:00,57.0,27.4,30.10,WSW,249,3.0,11.0,32,0.00,,,0.00,Wunderground v.1.15,2013-03-15 05:48:00,
2013-03-14 23:54:00,57.2,27.6,30.10,WSW,249,3.0,11.0,32,0.00,,,0.00,Wunderground v.1.15,2013-03-15 05:54:00,